FENGYUN 1C DEB

Satellite information

Favourite Embed

Satellite Type and Status

DEBRISIN ORBIT

Key statistics

Satellite FENGYUN 1C DEB at a glance.

Uptime

9672

Days in orbit

Revolutions

≈ 13.9

Per day

Orbit

SSO

Sun Synchronous Orbit

Inclination

99.0

Latest

Satellite identification and parameters

Extended collection of information and parameters for FENGYUN 1C DEB.

Object identification

Identified? True

Debris? True

Object name: FENGYUN 1C DEB

International designator: 1999-025CRW

Object number (NORAD): 32128

Object ID (CCSDS): 32128

Country: PEOPLES REPUBLIC OF CHINA (PRC)

Current information (Y/N): Y

RCS size: SMALL

Orbital parameters

Period: 103.297 minutes

Inclination: 99.0367 deg

SMA: 7292.646 km

Apoapsis: 1204.22 km

Periapsis: 624.802 km

RAAN: 351.4136 deg

Eccentricy: 0.0397262

Argument of periapsis: 339.2318 deg

Mean anomaly: 19.3082 deg

Mean motion: 13.94039451 rev/day

Mean motion (dot): 0.00001546 rev/day2

B* drag term: 0.00062549 1/REarth

Two-line elements (TLE)

Creation date: Oct. 31, 2025, 6:46 p.m.

Reference frame: TEME

Reference center: EARTH

Epoch: Oct. 31, 2025, 9:09 a.m. UTC

TLE line 0: 0 FENGYUN 1C DEB

TLE line 1: 1 32128U 99025CRW 25304.38153826 .00001546 00000-0 62549-3 0 9996

TLE line 2: 2 32128 99.0367 351.4136 0397262 339.2318 19.3082 13.94039451623950

Live tracking on map

Real-time ground track for satellite FENGYUN 1C DEB.

In-orbit conjunctions

A list of the most updated potential collisions computed for object FENGYUN 1C DEB.

Target Orbit TCA Probability of collision Miss distance Type
PEGASUS DEB LEO 2024-11-13 15:01:01 0.0008823215 236.0 (m) DEBRIS

Associated space launch

Chinese polar orbiting meteorological satellite

FENGYUN 1C DEB was lifted into orbit during the mission ‘Long March 4B | Feng Yun 1C’, on board a Long March 4B space rocket.

The launch took place on May 10, 1999, 1:33 a.m. from Launch Complex 7.

For more information about the launch, click the button.

Launch to space Long March 4B | Feng Yun 1C
Long March 4B | Feng Yun 1C

Agency: N/A

Status: Launch Successful

Launch date: May 10, 1999, 1:33 a.m. UTC

Rocket: Long March 4B

Launch pad: Launch Complex 7

Location: Taiyuan Satellite Launch Center, People's Republic of China

...

Latest news about this satellite

There are no fresh news available about this satellite. Check back as we update our databases every day.


Newsletter sign-up

Weekly statistics, charts and insights to help you stay on top of the space industry.